Regional Weather Roundup
Issued by NWS Albany, NY

Home | Current Version | Previous Version | Text Only | Print | Product List | Glossary On
Versions: 1 2 3 4 5 6 7 8 9 10 11 12 13 14 15 16 17 18 19 20 21 22 23 24 25 26 27 28 29 30 31 32 33 34 35 36 37 38 39 40 41 42 43 44 45 46 47 48 49 50
000
ASUS41 KALY 270710
RWRALY

NEW YORK STATE HOURLY WEATHER ROUNDUP
NATIONAL WEATHER SERVICE ALBANY NY
300 AM EDT MON MAR 27 2017

NOTE: "FAIR" INDICATES FEW OR NO CLOUDS BELOW 12,000 FEET WITH NO
SIGNIFICANT WEATHER AND/OR NO OBSTRUCTIONS TO VISIBILITY.

NYZ032-033-038>043-046>054-057>066-NYZ062>081-082-084-270800-
EAST


CITY           SKY/WX    TMP DP  RH WIND       PRES   REMARKS
ALBANY         CLOUDY    36  30  79 S15       30.20F WCI  27
GLENS FALLS    CLOUDY    33  30  88 CALM      30.20F
POUGHKEEPSIE   CLOUDY    34  33  96 N3        30.24F FOG
NEWBURGH       DRIZZLE   36  36 100 E7        30.24F FOG     WCI  30
MONTGOMERY     CLOUDY    36  34  92 N6        30.21F FOG     WCI  31
WHITE PLAINS   DRIZZLE   36  35  96 E9        30.21F FOG     WCI  29
ISLIP          CLOUDY    39  39 100 E9        30.23F FOG     WCI  33
NEW YORK CITY  DRIZZLE   39  37  92 NE10      30.24F FOG     WCI  32
CENTRAL PARK   CLOUDY    38  37  97 NE8       30.25F FOG     WCI  32
$$

NYZ005>009-017-018-044>046-055-056-270800-
CENTRAL


CITY           SKY/WX    TMP DP  RH WIND       PRES   REMARKS
FULTON         LGT RAIN  38  35  89 SE6       30.03F WCI  33
SYRACUSE       LGT RAIN  40  37  89 E7        30.04F
ROME           LGT RAIN  35  34  96 E8        30.11F WCI  29
ELMIRA         CLOUDY    43  37  79 VRB5      30.06F
BINGHAMTON     LGT RAIN  34  34 100 S9        30.06F WCI  27
MONTICELLO     CLOUDY    32  32 100 E7        30.17F WCI  26
$$

NYZ026>034-041>043-087-270800-
NORTH


CITY           SKY/WX    TMP DP  RH WIND       PRES   REMARKS
WATERTOWN      LGT RAIN  43  41  93 CALM      30.00F
FORT DRUM      NOT AVBL
MASSENA        CLOUDY    34  31  88 NE7       30.07F WCI  28
SARANAC LAKE   CLOUDY    35  35 100 SW3       30.01F
PLATTSBURGH    CLOUDY    36  30  79 SE12      30.11F WCI  28
$$

NYZ001>004-010>016-019>021-085-270800-
WEST


CITY           SKY/WX    TMP DP  RH WIND       PRES   REMARKS
NIAGARA FALLS  MOCLDY    51  43  74 S12       29.90F
BUFFALO        CLOUDY    49  43  80 S9        29.91F
DUNKIRK        CLOUDY    51  45  79 S15G26    29.89F
JAMESTOWN      CLOUDY    45  41  87 S10       29.91F
WELLSVILLE     CLOUDY    42  39  89 S12       29.98F
ROCHESTER      CLOUDY    47  41  80 S14       29.95F
PENN YAN       CLOUDY    43  37  79 S14G22    30.01F
$$

             KEY
       WCI = WIND CHILL INDEX
       VSB = VISIBILITY
       HX  = HEAT INDEX
$$



USA.gov is the U.S. government's official web portal to all federal, state and local government web resources and services.